Location: Hengforden
(52.3167°N, 6.1333°E)
Time: 15:30:55
(UTC+00:00)

Cosmos 2219 - Pass Details

Date: 14 June 2025
Orbit: 832 x 859 km, 71.1° (Epoch: 19 July)

Event Time Altitude Azimuth Distance (km) Brightness Sun altitude
Exits shadow 22:02:40 - 205° (SSW) 3,074 5.7 -11.7°
Reaches altitude 10° 22:04:13 10° 204° (SSW) 2,484 5.2 -11.8°
Maximum altitude 22:09:56 82° 119° (ESE) 874 3.2 -12.1°
Drops below altitude 10° 22:15:43 10° 32° (NNE) 2,507 6.2 -12.4°
Sets 22:18:11 0° 32° (NNE) 3,447 7.0 -12.5°
